TimeEST,TemperatureF,Dew PointF,Humidity,Sea Level PressureIn,VisibilityMPH,Wind Direction,Wind SpeedMPH,Gust SpeedMPH,PrecipitationIn,Events,Conditions,WindDirDegrees,DateUTC
12:53 AM,21.9,16.0,78,29.98,6.0,SW,17.3,-,0.00,Snow,Light Snow,220,2012-01-14 05:53:00
1:53 AM,23.0,16.0,74,29.99,7.0,SW,18.4,-,0.00,,Overcast,220,2012-01-14 06:53:00
2:53 AM,23.0,16.0,74,30.01,7.0,SW,18.4,-,N/A,,Overcast,230,2012-01-14 07:53:00
3:53 AM,23.0,16.0,74,30.02,8.0,SW,17.3,-,N/A,,Overcast,230,2012-01-14 08:53:00
4:53 AM,23.0,16.0,74,30.03,5.0,SW,16.1,23.0,0.00,Snow,Light Snow,230,2012-01-14 09:53:00
5:17 AM,21.2,15.8,80,30.01,2.5,SW,18.4,-,0.00,Snow,Light Snow,230,2012-01-14 10:17:00
5:30 AM,21.2,15.8,80,30.01,4.0,SW,17.3,-,0.00,Snow,Light Snow,230,2012-01-14 10:30:00
5:53 AM,21.9,16.0,78,30.04,5.0,SW,18.4,-,0.00,,Haze,220,2012-01-14 10:53:00
6:53 AM,21.9,15.1,75,30.07,8.0,SW,15.0,-,N/A,,Overcast,220,2012-01-14 11:53:00
7:53 AM,21.0,15.1,78,30.08,7.0,SW,11.5,-,N/A,,Overcast,220,2012-01-14 12:53:00
8:53 AM,21.0,15.1,78,30.10,7.0,SW,16.1,21.9,N/A,,Overcast,220,2012-01-14 13:53:00
9:30 AM,21.2,15.8,80,30.09,2.0,SW,15.0,-,0.00,Snow,Light Snow,220,2012-01-14 14:30:00
9:44 AM,21.2,15.8,80,30.09,1.8,SW,16.1,-,0.00,Snow,Light Snow,220,2012-01-14 14:44:00
9:53 AM,21.9,15.1,75,30.12,2.0,SW,17.3,-,0.00,Snow,Light Snow,220,2012-01-14 14:53:00
10:12 AM,21.2,15.8,80,30.09,3.0,SW,16.1,-,0.00,Snow,Light Snow,220,2012-01-14 15:12:00
10:53 AM,21.9,15.1,75,30.13,3.0,SW,13.8,-,0.00,Snow,Light Snow,230,2012-01-14 15:53:00
11:15 AM,23.0,15.8,74,30.10,2.5,SW,12.7,-,0.00,Snow,Light Snow,220,2012-01-14 16:15:00
11:23 AM,23.0,15.8,74,30.10,3.0,SW,12.7,-,0.00,Snow,Light Snow,230,2012-01-14 16:23:00
11:53 AM,23.0,15.1,72,30.12,3.0,SW,11.5,-,0.00,Snow,Light Snow,220,2012-01-14 16:53:00
12:53 PM,23.0,15.1,72,30.11,4.0,WSW,12.7,-,0.00,Snow,Light Snow,250,2012-01-14 17:53:00
1:53 PM,23.0,15.1,72,30.10,4.0,SW,10.4,-,0.00,Snow,Light Snow,230,2012-01-14 18:53:00
2:53 PM,24.1,15.1,69,30.11,8.0,WSW,10.4,-,0.00,,Overcast,250,2012-01-14 19:53:00
3:42 PM,23.0,15.8,74,30.10,2.0,WSW,12.7,-,0.00,Snow,Light Snow,240,2012-01-14 20:42:00
3:50 PM,23.0,15.8,74,30.10,1.8,WSW,10.4,-,0.00,Snow,Light Snow,240,2012-01-14 20:50:00
3:53 PM,23.0,16.0,74,30.13,1.8,WSW,11.5,-,0.00,Snow,Light Snow,240,2012-01-14 20:53:00
4:00 PM,23.0,15.8,74,30.10,2.0,WSW,11.5,-,0.00,Snow,Light Snow,240,2012-01-14 21:00:00
4:33 PM,23.0,15.8,74,30.11,3.0,SW,9.2,-,0.00,Snow,Light Snow,220,2012-01-14 21:33:00
4:53 PM,23.0,15.1,72,30.14,5.0,SSW,10.4,-,0.00,,Haze,210,2012-01-14 21:53:00
5:24 PM,23.0,15.8,74,30.12,6.0,SW,9.2,-,N/A,,Haze,220,2012-01-14 22:24:00
5:53 PM,23.0,15.1,72,30.16,8.0,SW,12.7,-,N/A,,Overcast,220,2012-01-14 22:53:00
6:53 PM,23.0,15.1,72,30.17,8.0,SW,11.5,-,N/A,,Overcast,230,2012-01-14 23:53:00
7:53 PM,23.0,15.1,72,30.19,7.0,SW,11.5,-,N/A,,Overcast,220,2012-01-15 00:53:00
8:09 PM,23.0,15.8,74,30.17,8.0,SW,9.2,-,N/A,,Overcast,230,2012-01-15 01:09:00
8:22 PM,23.0,15.8,74,30.17,7.0,SW,10.4,-,0.00,Snow,Light Snow,230,2012-01-15 01:22:00
8:42 PM,23.0,15.8,74,30.18,1.8,WSW,10.4,-,0.00,Snow,Light Snow,240,2012-01-15 01:42:00
8:53 PM,21.9,17.1,82,30.21,0.8,WSW,8.1,-,0.00,Snow,Light Snow,240,2012-01-15 01:53:00
9:00 PM,21.2,17.6,86,30.18,0.8,WSW,9.2,-,0.00,Snow,Light Snow,240,2012-01-15 02:00:00
9:11 PM,21.2,17.6,86,30.18,1.0,SSW,6.9,-,0.01,Snow,Light Snow,210,2012-01-15 02:11:00
9:53 PM,21.9,18.0,85,30.22,1.5,SW,5.8,-,0.01,Snow,Light Snow,220,2012-01-15 02:53:00
10:05 PM,21.2,17.6,86,30.19,1.0,SW,8.1,-,0.01,Snow,Light Snow,230,2012-01-15 03:05:00
10:09 PM,21.2,17.6,86,30.19,0.8,SW,8.1,-,0.02,Snow,Light Snow,220,2012-01-15 03:09:00
10:34 PM,21.2,19.4,93,30.19,0.5,Calm,Calm,-,0.06,Fog-Snow,Snow,0,2012-01-15 03:34:00
10:53 PM,21.9,19.0,89,30.23,1.0,South,3.5,-,0.07,Snow,Light Snow,170,2012-01-15 03:53:00
11:02 PM,23.0,17.6,80,30.20,1.2,Calm,Calm,-,0.00,Snow,Light Snow,0,2012-01-15 04:02:00
11:33 PM,21.2,17.6,86,30.21,2.0,SSE,4.6,-,0.00,Snow,Light Snow,160,2012-01-15 04:33:00
11:53 PM,21.9,18.0,85,30.25,2.5,South,3.5,-,0.00,Snow,Light Snow,180,2012-01-15 04:53:00